SCP
0 0 0 0 0 0 0 0 0 0 0 0 0 0 0 0 0 0 0 0 0 0 0 0 0 0 0 0 0 0 0 0 0 -0 -0 0 -0 -0 -0 0 -0 0 0 0 0 0 0 0 0 0 0 0 0 0
0 0 0 0 0 0 0 0 0 0 0 0 0 0 0 0 0 0 0 0 0 0 0 0 0 0 0 0 0 0 -0 -0 0 0 0 -0 0 0 0 0 0 0 0 0 0 0 0 0 0 0 0 0 0 0
0 0 0 0 0 0 0 0 0 0 0 0 0 0 0 0 0 0 0 0 0 0 0 0 0 0 0 0 0 0 0 0 0 0 -0 0 0 -0 -0 0 -0 0 0 0 0 0 0 0 0 0 0 0 0 0
0 0 0 0 0 0 0 0 0 0 0 0 0 0 0 0 0 0 0 0 0 0 0 0 0 0 0 0 0 0 0 0 -0 0 -0 -0 0 0 -0 0 0 0 0 0 0 0 0 0 0 0 0 0 0 0
0 0 0 0 0 0 0 0 0 0 0 0 0 0 0 0 0 0 0 0 0 0 0 0 -0 0 0 0 0 0 0 0 0 0 0 0 0 0 0 0 0 0 0 0 0 0 0 0 0 0 0 0 0 0
0 0 0 0 0 0 0 0 0 0 0 0 0 0 0 0 0 0 0 0 0 0 0 0 0 0 0 0 0 0 0 0 0 -0 0 0 0 0 0 0 0 0 0 0 0 0 0 0 0 0 0 0 0 0
0 0 0 0 0 0 0 0 0 0 0 0 0 0 0 0 0 0 0 0 0 0 0 0 0 0 0 0 0 0 0 0 0 0 0 0 0 0 -0 0 0 0 0 0 0 0 0 0 0 0 0 0 0 0
0 0 0 0 0 0 0 0 0 0 0 0 0 0 0 0 0 0 0 0 0 0 0 0 0 0 0 0 0 0 -0 0 0 0 0 0 0 0 0 0 0 0 0 0 0 0 0 0 0 0 0 0 0 0
0 0 0 0 0 0 0 0 0 0 0 0 0 0 0 0 0 0 0 0 0 0 0 0 -0 0 0 -0 0 0 0 0 0 0 0 0 0 0 0 0 0 0 0 0 0 0 0 -0 0 0 0 0 0 0
0 0 0 0 0 0 0 0 0 0 0 0 0 0 0 0 0 0 0 0 0 0 0 0 -0 0 0 0 0 0 0 0 0 0 0 0 0 0 0 0 0 0 0 0 0 0 0 0 0 0 0 0 0 0
0 0 0 0 0 0 0 0 0 0 0 0 0 0 0 0 0 0 0 0 0 0 0 0 -0 -0 0 -0 0 0 0 0 0 0 0 0 0 0 0 0 0 0 0 0 0 0 0 0 0 0 0 0 0 0
0 0 0 0 0 0 0 0 0 0 0 0 0 0 0 0 0 0 0 0 0 -0 0 0 0 -0 0 0 0 0 0 0 0 0 0 0 0 0 0 0 0 0 0 0 0 0 0 0 0 0 0 0 0 0
0 0 0 0 0 0 0 0 0 0 0 0 0 0 0 0 0 0 0 0 -0 0 0 0 0 -0 0 0 -0 0 0 0 0 0 0 0 0 0 0 0 0 0 0 0 0 0 0 0 0 0 0 0 0 0
0 0 0 0 0 0 0 0 0 0 0 0 0 0 0 0 0 0 0 0 0 0 0 -0 0 0 -0 0 0 0 0 0 0 0 0 0 0 0 0 0 0 0 0 0 0 0 0 0 0 0 0 0 0 0
0 0 0 0 0 0 0 0 0 0 0 0 0 0 0 0 0 0 0 0 0 0 0 0 0 0 -0 0 0 0 0 0 0 0 0 0 0 0 0 0 0 0 0 0 0 0 0 0 0 0 0 0 0 0
0 0 0 0 0 0 0 0 0 0 0 0 0 0 0 0 0 -0 0 0 0 0 0 0 0 0 0 0 0 0 0 0 0 0 0 0 0 0 0 0 0 0 0 0 0 0 0 0 0 0 0 0 0 0
0 0 0 0 0 0 0 0 0 0 0 0 0 0 0 0 0 0 0 0 0 -0 0 0 0 0 0 0 0 0 0 0 0 0 0 0 0 0 0 0 0 0 0 0 0 0 0 0 0 0 0 0 0 0
0 0 0 0 0 0 0 0 0 0 0 0 0 0 0 0 0 0 0 0 0 0 -0 0 0 0 0 0 0 0 0 0 0 0 0 0 0 0 0 0 0 0 0 0 0 0 0 0 0 0 0 0 0 0
0 0 0 0 0 0 0 0 0 0 0 0 0 0 0 0 0 0 0 0 0 -0 -0 0 0 0 0 0 0 0 0 0 0 0 0 0 0 0 0 0 0 0 0 0 0 0 0 0 0 0 0 0 0 0
0 0 0 0 0 0 0 0 0 0 0 0 0 -0 0 0 0 0 -0 -0 0 0 0 0 0 0 0 0 0 0 0 0 0 0 0 0 0 0 0 0 0 0 0 0 0 0 0 0 0 0 0 0 0 0
0 0 0 0 0 0 0 0 0 0 0 0 0 0 0 0 0 -0 0 0 0 0 0 0 0 0 0 0 0 0 0 0 0 0 0 0 0 0 0 0 0 0 0 0 0 0 0 0 0 0 0 0 0 0
0 0 0 0 0 0 0 0 0 0 0 0 0 0 0 0 0 0 0 0 0 0 0 0 0 0 0 0 0 0 0 0 0 0 0 0 0 0 0 0 0 0 0 0 0 0 0 0 0 0 0 0 0 0
0 0 0 0 0 0 0 0 0 0 0 0 -0 0 0 0 0 0 0 0 0 0 0 0 0 0 0 0 0 0 0 0 0 0 0 -0 0 0 0 0 0 0 0 0 0 0 0 0 0 0 0 0 0 0
0 0 0 0 0 0 0 0 0 0 0 -0 0 0 0 0 0 0 0 0 0 0 0 0 0 0 0 0 0 0 0 -0 -0 0 0 0 0 0 0 0 0 0 0 0 0 0 0 0 0 0 0 0 0 0
0 0 0 0 0 0 0 0 0 0 0 0 0 0 0 0 0 0 0 0 0 0 0 0 0 0 0 0 0 0 0 0 0 0 0 0 0 0 0 0 0 0 0 0 0 0 0 0 0 0 0 0 0 0
0 0 0 0 0 0 0 0 0 0 0 0 0 0 0 0 0 0 0 0 0 0 0 0 0 0 0 0 0 0 0 0 0 0 0 0 0 0 0 0 0 0 0 0 0 0 0 0 0 0 0 0 0 0
0 0 0 0 0 0 0 0 0 0 0 0 0 0 0 0 0 0 0 0 0 0 0 0 0 0 0 0 0 0 0 0 0 0 0 0 0 0 0 0 0 0 0 0 0 0 0 0 0 0 0 0 0 0
0 0 0 0 0 0 0 0 0 0 0 0 0 0 0 0 0 0 0 0 0 0 0 0 0 0 0 0 0 0 0 0 0 0 0 0 0 0 0 0 0 0 0 0 0 0 0 0 0 0 0 0 0 0
0 0 -0 -0 -0 -0 -0 -0 0 0 0 0 0 0 0 0 0 0 0 0 0 0 0 0 0 0 0 0 0 0 0 0 0 0 0 0 0 0 0 0 0 0 0 0 0 0 0 0 0 0 0 0 0 0
0 0 0 -0 -0 -0 0 0 0 0 0 0 0 0 0 0 0 0 0 0 0 0 0 0 0 0 0 0 0 0 0 0 0 0 0 0 0 0 0 0 0 0 0 0 0 0 0 0 0 0 0 0 0 0
0 -0 -0 -0 -0 -0 -0 -0 -0 -0 -0 0 0 0 0 0 0 0 0 0 0 0 0 0 0 0 0 0 0 0 0 0 0 0 0 0 0 0 0 0 0 0 0 0 0 0 0 0 0 0 0 0 0 0
-0 -0 -0 -0 -0 -0 -0 0 0 -0 0 0 0 0 0 0 0 0 0 0 0 0 0 0 0 0 0 0 0 0 0 0 0 0 0 0 0 0 0 0 0 0 0 0 0 0 0 0 0 0 0 0 0 0
-0 -0 -0 -0 -0 -0 0 0 0 0 0 0 0 0 0 0 0 0 -0 0 0 0 0 0 0 0 0 0 0 0 0 0 0 0 0 0 0 0 0 0 0 0 0 0 0 0 0 0 0 0 0 0 0 0
Wind_Speed_500mb
47 47 45 42 39 36 34 31 29 28 26 27 29 30 23 22 23 16 12 10 6 21 5 2 1 5 6 7 15 15 22 4 21 18 13 9 19 12 20 12 13 5 7 2 4 12 3 5 9 8 9 3 8 9
48 48 45 42 39 35 34 32 30 29 27 27 29 29 22 20 20 14 6 13 8 12 12 4 8 6 3 7 14 20 17 20 21 12 9 10 8 7 24 6 16 5 10 6 5 11 12 4 7 3 5 12 12 10
48 47 44 42 38 34 34 32 31 29 27 27 29 28 22 19 18 16 16 15 12 15 27 23 16 8 4 6 7 19 12 15 10 9 17 9 12 12 17 3 5 2 5 2 4 10 6 2 0 7 12 17 14 13
47 47 43 41 36 34 34 33 31 29 28 27 29 27 22 19 19 18 18 10 12 15 17 9 10 11 9 6 5 7 13 12 11 13 22 7 4 17 15 8 15 11 5 6 6 7 7 7 4 11 14 12 14 14
47 45 42 39 34 34 35 33 32 29 28 29 31 26 21 19 21 20 24 21 18 11 12 8 12 15 13 11 9 7 9 13 20 13 10 2 7 10 7 9 18 10 16 8 9 10 7 9 6 7 10 11 14 17
47 44 40 36 33 34 35 33 31 28 28 30 30 26 21 18 20 13 9 16 18 15 15 11 12 19 22 17 15 13 11 11 20 11 5 3 1 11 12 10 9 9 5 4 3 2 7 5 7 11 14 17 19 21
48 43 39 34 33 35 34 32 29 27 29 31 28 25 22 20 23 21 4 5 19 15 11 13 19 19 22 21 21 23 14 19 18 16 3 8 6 9 13 7 5 2 5 5 2 4 10 7 13 16 21 24 26 30
46 41 35 32 34 34 32 29 26 26 30 28 26 22 21 23 23 27 27 10 16 10 14 8 11 19 28 29 36 5 26 18 14 14 10 11 21 12 1 10 8 2 5 10 13 14 19 23 24 29 30 37 39 40
43 36 32 34 34 31 29 25 24 26 27 24 20 19 18 17 13 18 22 15 19 14 14 14 18 5 15 37 14 21 16 15 10 28 12 3 14 5 9 9 2 6 6 13 12 18 23 27 27 33 39 42 40 37
38 32 33 33 30 28 24 22 23 24 22 19 14 9 12 16 19 12 10 9 13 16 16 26 34 7 9 11 15 11 10 13 9 8 5 10 3 15 5 12 5 4 4 11 19 24 30 30 29 32 33 34 35 31
31 31 30 28 27 24 21 21 21 16 14 12 13 10 8 21 15 11 15 16 19 10 22 32 37 21 6 17 9 14 8 7 10 8 8 4 5 19 9 10 7 4 6 12 15 20 22 24 27 30 32 34 34 33
28 27 27 25 23 22 20 21 19 14 12 16 13 10 13 10 14 13 8 9 7 15 12 10 13 20 6 4 13 2 8 7 2 6 6 5 11 4 8 2 1 5 12 20 25 25 27 31 33 36 37 38 38 40
26 26 24 24 23 21 21 21 17 14 15 15 10 11 13 12 2 11 11 8 10 15 8 14 14 11 11 12 10 5 3 5 9 5 5 6 8 3 1 4 8 10 20 21 27 32 37 42 44 43 49 45 45 43
25 25 23 23 22 21 20 21 15 15 20 10 15 5 10 11 12 15 14 4 14 9 7 12 13 10 5 6 6 6 8 10 6 2 5 9 15 15 6 10 16 26 31 32 34 42 47 50 55 58 61 58 52 54
21 20 23 21 21 21 24 18 19 23 12 10 10 9 15 3 6 8 10 6 6 7 6 9 9 5 11 6 5 2 4 2 13 6 4 17 18 17 18 21 25 30 36 40 42 46 49 51 49 46 45 44 40 44
16 16 19 18 22 25 19 20 22 21 7 6 9 8 2 11 10 12 12 15 7 6 5 9 6 5 7 6 4 12 6 4 3 5 20 30 22 21 22 24 27 30 32 35 37 39 40 41 43 46 42 39 41 42
11 11 17 25 22 20 26 29 16 8 6 8 8 4 10 13 13 13 7 10 1 11 10 2 4 3 6 7 9 6 8 7 22 31 35 29 25 26 26 27 29 32 33 35 35 34 38 39 32 34 42 45 45 47
17 21 20 20 20 31 32 11 7 11 11 8 12 12 8 13 13 9 7 5 7 8 9 3 2 12 9 11 7 16 21 22 17 24 29 26 28 31 32 33 34 36 36 30 27 30 36 46 45 44 48 55 62 61
20 22 22 25 40 22 9 10 9 5 5 9 14 14 18 16 17 14 12 9 7 4 2 9 14 13 19 36 34 35 34 28 39 36 35 37 38 31 32 26 34 36 36 38 39 40 42 44 43 51 55 58 58 56
21 22 29 46 30 9 6 7 10 7 14 13 18 20 22 24 23 33 41 39 37 30 24 13 16 31 37 43 35 31 34 25 25 21 37 30 30 30 39 40 36 34 34 38 42 50 55 49 45 49 53 59 61 65
23 26 42 39 13 7 2 11 7 5 18 17 23 27 27 27 46 49 46 45 55 23 25 29 36 34 32 34 43 36 38 37 39 33 28 26 29 30 32 34 34 32 33 42 48 49 49 49 54 57 60 59 61 62
28 36 36 19 6 6 6 5 10 19 12 22 20 26 33 39 34 41 45 42 19 22 20 31 31 26 29 37 37 37 37 35 30 25 26 29 31 35 36 36 37 38 41 43 48 49 50 51 55 58 58 60 62 63
34 27 12 6 5 6 7 12 15 16 12 26 22 18 27 26 22 22 18 15 15 33 29 30 31 27 29 28 33 35 34 28 27 28 30 30 31 32 33 35 37 38 42 45 46 46 49 51 54 56 58 60 62 65
24 7 5 5 5 6 13 10 10 11 15 23 13 14 17 18 19 18 9 10 18 19 25 25 20 17 19 25 27 29 31 31 29 30 34 33 34 35 34 36 36 37 37 43 42 44 47 49 52 54 58 60 63 66
5 7 4 3 4 14 14 15 13 13 15 10 10 11 14 12 9 8 6 8 16 19 19 21 25 26 22 21 24 28 30 31 33 32 34 34 35 36 36 36 36 36 41 41 44 47 49 51 54 58 61 63 65 66
8 3 3 8 12 11 12 12 13 12 12 5 8 11 15 13 10 9 7 16 17 19 20 20 19 18 21 23 25 28 30 31 32 31 34 36 35 35 37 40 41 40 45 41 46 50 53 55 57 59 60 60 61 63
4 5 6 5 10 14 8 15 16 13 7 5 7 14 8 9 8 8 24 20 22 17 15 16 16 19 21 23 24 25 27 30 31 32 33 30 29 29 33 38 40 43 45 42 45 49 52 55 58 59 62 62 61 64
3 13 18 19 27 24 20 21 18 14 10 10 12 10 7 7 6 13 28 24 14 16 19 20 20 20 21 22 23 26 28 29 29 30 30 25 28 30 35 37 39 47 44 44 48 50 52 56 59 60 63 64 65 64
16 24 37 38 30 25 24 21 19 14 19 7 9 8 9 12 40 50 32 22 24 19 17 17 19 21 20 22 23 26 27 29 33 37 39 39 40 42 43 44 47 47 46 49 51 53 55 58 59 61 62 62 64 65
21 24 22 22 16 15 24 22 26 24 29 34 46 63 69 58 41 31 27 23 18 17 17 19 20 22 24 26 27 28 25 27 29 33 38 41 43 46 47 49 52 49 50 53 56 58 58 59 61 62 62 66 68 71
24 28 24 24 16 32 43 48 53 57 62 75 67 72 60 48 36 27 18 14 13 15 21 22 21 22 24 26 27 30 31 30 30 31 36 37 39 45 48 52 49 49 52 54 56 58 61 63 66 67 69 71 71 72
29 23 23 13 30 34 25 27 34 47 43 46 42 36 27 16 11 8 14 11 11 15 21 23 21 23 23 24 25 27 32 32 32 35 39 38 44 47 51 48 47 49 51 53 57 59 61 65 67 69 71 72 74 75
33 39 45 34 21 25 19 21 12 16 16 11 9 15 13 8 6 4 10 11 13 15 19 21 20 21 24 26 29 30 31 32 37 43 44 50 58 55 46 45 48 51 52 57 59 59 61 63 66 68 69 70 72 73
Wind_Direction_500mb
253 243 241 241 245 248 252 255 261 273 288 303 317 323 320 326 329 320 270 285 237 285 63 185 248 327 308 313 321 359 288 7 266 278 286 139 203 186 263 133 263 7 183 59 184 263 292 94 198 295 58 205 297 295
249 238 237 238 241 244 249 253 258 269 283 298 311 316 312 316 324 310 318 306 279 254 328 248 242 263 301 329 322 307 315 295 354 323 330 316 354 298 315 252 266 297 26 356 356 35 117 71 27 66 298 290 295 294
239 234 234 235 237 241 246 250 255 266 279 294 306 309 303 303 312 292 270 259 285 262 245 214 203 203 217 258 308 308 16 344 294 315 317 301 271 287 281 187 57 229 118 268 297 118 147 133 304 300 290 285 287 284
233 232 231 231 233 239 244 247 253 264 277 292 301 300 294 292 297 283 264 264 262 287 280 139 166 160 189 191 206 284 308 311 288 278 270 293 269 68 295 314 321 72 231 35 230 154 200 180 311 317 300 277 276 273
227 227 227 226 230 238 242 245 252 263 276 290 296 292 284 284 287 277 259 244 235 259 323 86 200 185 190 188 210 256 287 283 274 242 239 310 315 325 273 307 286 78 20 340 58 95 320 81 327 301 300 287 277 279
223 223 222 222 228 236 239 244 251 262 276 287 289 286 275 276 280 274 264 248 220 225 292 280 113 172 195 205 218 239 257 270 279 301 354 205 74 289 285 289 87 84 107 14 338 92 22 328 297 300 305 301 287 280
219 218 217 220 228 233 237 243 251 264 278 286 280 281 263 267 260 219 299 140 190 188 246 251 240 176 197 206 224 238 216 263 289 247 276 276 180 212 286 355 90 103 139 165 201 279 270 247 299 323 302 293 281 273
214 213 214 220 227 230 235 242 253 269 281 277 278 270 258 267 249 242 241 246 189 213 247 257 253 190 191 215 232 155 272 228 218 271 288 257 176 248 214 73 67 222 222 245 254 257 276 297 296 290 297 296 285 285
209 210 214 219 222 227 233 243 260 274 273 273 272 267 259 226 214 207 234 237 216 226 291 223 255 113 160 246 191 215 341 268 88 283 236 316 272 231 82 48 67 194 262 323 332 302 292 290 293 314 314 307 301 307
204 209 213 215 218 224 233 249 265 270 266 265 257 185 213 200 195 201 178 173 197 217 236 268 284 280 238 126 221 259 249 348 233 211 338 250 27 156 50 61 46 32 352 337 330 335 331 322 315 311 304 308 306 310
205 208 210 213 218 225 237 253 266 256 266 185 189 221 247 179 168 203 212 212 201 223 218 231 246 278 32 271 83 241 308 284 276 109 266 133 332 77 99 106 102 53 347 334 319 317 316 312 312 315 316 314 313 312
208 210 213 216 223 232 243 253 230 234 210 193 201 190 158 202 216 201 224 201 240 228 169 240 198 229 123 322 274 285 283 216 326 246 288 34 352 221 162 137 235 326 329 329 325 312 306 305 310 311 310 308 304 301
212 214 220 225 229 234 240 229 214 225 208 205 210 197 192 190 69 210 210 217 223 161 170 196 187 217 174 243 272 295 278 268 322 290 43 110 159 137 35 302 289 289 307 310 322 323 332 326 319 316 308 307 310 318
213 220 226 232 230 232 230 197 210 201 184 208 193 337 204 191 214 216 238 113 71 87 174 222 163 211 243 244 219 249 5 306 312 115 48 73 39 7 320 293 301 322 331 326 334 336 328 328 330 326 328 330 321 312
221 233 240 229 226 214 186 200 197 189 199 231 211 197 212 19 8 10 338 86 91 115 203 208 232 240 261 249 213 102 301 60 3 98 103 67 34 9 356 347 342 348 346 338 334 332 329 325 323 324 326 327 331 332
232 240 236 211 183 178 191 186 178 186 230 237 241 231 136 216 137 190 162 113 135 140 209 249 252 255 220 251 101 33 259 23 58 147 69 55 41 28 15 5 356 351 348 346 345 344 341 339 338 334 339 346 343 339
215 199 186 168 182 189 167 161 166 192 229 215 193 266 217 184 131 83 61 69 215 255 249 253 218 46 207 52 319 5 61 46 59 66 69 52 40 28 19 13 8 3 357 352 347 347 357 353 346 345 354 345 347 338
175 180 174 177 169 157 153 155 169 202 207 184 193 161 56 101 126 98 76 42 254 209 213 45 103 36 30 36 101 60 42 57 42 78 65 55 41 31 27 19 12 8 10 9 15 12 6 1 357 346 343 341 337 334
173 176 173 163 151 134 156 178 197 174 112 138 115 136 112 101 89 82 84 65 83 101 182 49 59 40 37 30 30 38 32 20 81 80 72 53 46 45 36 28 21 14 10 7 3 358 350 348 342 338 339 344 340 342
166 164 163 159 147 120 127 170 171 143 169 145 141 151 127 102 101 78 58 59 65 55 33 46 50 38 36 24 43 42 32 27 20 30 43 36 29 15 14 13 7 359 353 347 345 348 352 353 353 349 343 340 335 333
149 151 159 164 160 134 125 154 113 88 146 167 126 132 134 114 86 98 90 69 56 58 46 77 79 57 64 64 64 55 45 43 43 46 36 20 10 8 2 0 1 359 2 358 356 353 352 348 342 340 338 336 335 334
147 144 146 154 137 156 93 74 130 151 164 152 162 151 130 112 108 95 71 65 56 17 49 70 69 62 57 53 50 48 46 38 39 26 24 10 359 358 1 3 3 359 354 353 350 347 346 344 343 342 342 340 338 337
129 135 129 139 126 74 115 133 160 165 151 173 180 138 135 117 120 104 78 60 46 40 66 70 72 69 64 55 48 39 33 28 20 15 11 4 1 360 355 353 350 350 347 347 348 347 345 345 346 347 345 345 344 342
148 92 103 92 108 119 155 163 161 169 149 176 177 142 121 129 97 76 77 69 34 49 65 61 58 58 50 42 34 25 20 17 11 7 4 4 358 354 351 349 349 349 349 345 346 346 346 346 346 346 345 345 345 345
109 45 70 61 157 173 169 169 175 162 182 172 125 126 158 131 64 73 79 89 53 62 54 50 52 54 49 34 23 18 12 11 5 358 357 354 348 345 347 348 348 348 346 349 348 345 344 343 342 342 342 341 340 339
80 122 188 156 171 181 164 160 179 174 157 114 80 127 68 70 71 76 88 113 99 82 68 55 42 35 30 21 13 10 6 1 358 355 350 349 346 346 346 346 346 345 344 345 341 340 339 339 338 338 337 338 338 338
102 125 152 164 131 141 122 142 154 123 102 113 104 68 78 79 93 94 126 132 114 86 61 52 42 34 22 11 7 1 354 353 352 347 344 345 344 346 346 344 341 335 338 337 334 336 335 334 334 334 334 334 334 334
79 153 134 122 92 95 88 82 56 41 55 55 77 49 71 73 96 129 140 133 100 62 51 39 25 12 2 1 356 352 348 347 348 348 348 348 347 344 341 339 335 335 337 333 332 332 332 331 331 331 331 329 328 329
133 120 109 93 76 62 30 25 30 32 344 13 93 95 91 78 130 127 119 94 76 62 39 25 10 7 2 359 353 350 348 348 350 351 349 346 344 343 342 338 336 336 334 331 330 330 330 329 328 328 326 324 326 325
95 107 95 56 52 51 31 42 52 46 61 100 105 113 111 115 110 101 90 80 65 44 23 12 4 360 358 354 349 349 350 347 346 344 341 339 336 334 334 332 331 333 332 330 329 329 330 330 328 328 327 326 326 327
104 96 74 74 84 96 90 82 77 78 89 98 113 110 110 109 97 82 69 58 42 16 12 9 3 355 353 351 348 344 339 341 339 336 332 333 331 330 330 329 332 332 329 328 328 328 329 328 328 327 327 326 326 326
97 111 118 104 137 135 104 76 76 93 97 101 105 108 108 93 88 86 55 37 24 12 2 1 355 348 343 343 339 336 331 335 334 327 330 329 330 330 330 334 334 331 329 328 328 328 327 327 327 327 328 328 328 328
97 103 112 112 132 171 140 122 111 121 110 100 74 95 82 76 85 60 58 20 6 356 351 347 345 342 340 338 335 334 334 333 329 333 331 330 331 337 341 338 335 333 332 331 329 328 329 329 329 330 330 330 330 330
Wind_Speed_850mb
47 47 45 42 39 36 34 31 29 28 26 27 29 30 23 22 23 16 12 10 6 21 5 2 1 5 6 7 15 15 22 4 21 18 13 9 19 12 20 12 13 5 7 2 4 12 3 5 9 8 9 3 8 9
48 48 45 42 39 35 34 32 30 29 27 27 29 29 22 20 20 14 6 13 8 12 12 4 8 6 3 7 14 20 17 20 21 12 9 10 8 7 24 6 16 5 10 6 5 11 12 4 7 3 5 12 12 10
48 47 44 42 38 34 34 32 31 29 27 27 29 28 22 19 18 16 16 15 12 15 27 23 16 8 4 6 7 19 12 15 10 9 17 9 12 12 17 3 5 2 5 2 4 10 6 2 0 7 12 17 14 13
47 47 43 41 36 34 34 33 31 29 28 27 29 27 22 19 19 18 18 10 12 15 17 9 10 11 9 6 5 7 13 12 11 13 22 7 4 17 15 8 15 11 5 6 6 7 7 7 4 11 14 12 14 14
47 45 42 39 34 34 35 33 32 29 28 29 31 26 21 19 21 20 24 21 18 11 12 8 12 15 13 11 9 7 9 13 20 13 10 2 7 10 7 9 18 10 16 8 9 10 7 9 6 7 10 11 14 17
47 44 40 36 33 34 35 33 31 28 28 30 30 26 21 18 20 13 9 16 18 15 15 11 12 19 22 17 15 13 11 11 20 11 5 3 1 11 12 10 9 9 5 4 3 2 7 5 7 11 14 17 19 21
48 43 39 34 33 35 34 32 29 27 29 31 28 25 22 20 23 21 4 5 19 15 11 13 19 19 22 21 21 23 14 19 18 16 3 8 6 9 13 7 5 2 5 5 2 4 10 7 13 16 21 24 26 30
46 41 35 32 34 34 32 29 26 26 30 28 26 22 21 23 23 27 27 10 16 10 14 8 11 19 28 29 36 5 26 18 14 14 10 11 21 12 1 10 8 2 5 10 13 14 19 23 24 29 30 37 39 40
43 36 32 34 34 31 29 25 24 26 27 24 20 19 18 17 13 18 22 15 19 14 14 14 18 5 15 37 14 21 16 15 10 28 12 3 14 5 9 9 2 6 6 13 12 18 23 27 27 33 39 42 40 37
38 32 33 33 30 28 24 22 23 24 22 19 14 9 12 16 19 12 10 9 13 16 16 26 34 7 9 11 15 11 10 13 9 8 5 10 3 15 5 12 5 4 4 11 19 24 30 30 29 32 33 34 35 31
31 31 30 28 27 24 21 21 21 16 14 12 13 10 8 21 15 11 15 16 19 10 22 32 37 21 6 17 9 14 8 7 10 8 8 4 5 19 9 10 7 4 6 12 15 20 22 24 27 30 32 34 34 33
28 27 27 25 23 22 20 21 19 14 12 16 13 10 13 10 14 13 8 9 7 15 12 10 13 20 6 4 13 2 8 7 2 6 6 5 11 4 8 2 1 5 12 20 25 25 27 31 33 36 37 38 38 40
26 26 24 24 23 21 21 21 17 14 15 15 10 11 13 12 2 11 11 8 10 15 8 14 14 11 11 12 10 5 3 5 9 5 5 6 8 3 1 4 8 10 20 21 27 32 37 42 44 43 49 45 45 43
25 25 23 23 22 21 20 21 15 15 20 10 15 5 10 11 12 15 14 4 14 9 7 12 13 10 5 6 6 6 8 10 6 2 5 9 15 15 6 10 16 26 31 32 34 42 47 50 55 58 61 58 52 54
21 20 23 21 21 21 24 18 19 23 12 10 10 9 15 3 6 8 10 6 6 7 6 9 9 5 11 6 5 2 4 2 13 6 4 17 18 17 18 21 25 30 36 40 42 46 49 51 49 46 45 44 40 44
16 16 19 18 22 25 19 20 22 21 7 6 9 8 2 11 10 12 12 15 7 6 5 9 6 5 7 6 4 12 6 4 3 5 20 30 22 21 22 24 27 30 32 35 37 39 40 41 43 46 42 39 41 42
11 11 17 25 22 20 26 29 16 8 6 8 8 4 10 13 13 13 7 10 1 11 10 2 4 3 6 7 9 6 8 7 22 31 35 29 25 26 26 27 29 32 33 35 35 34 38 39 32 34 42 45 45 47
17 21 20 20 20 31 32 11 7 11 11 8 12 12 8 13 13 9 7 5 7 8 9 3 2 12 9 11 7 16 21 22 17 24 29 26 28 31 32 33 34 36 36 30 27 30 36 46 45 44 48 55 62 61
20 22 22 25 40 22 9 10 9 5 5 9 14 14 18 16 17 14 12 9 7 4 2 9 14 13 19 36 34 35 34 28 39 36 35 37 38 31 32 26 34 36 36 38 39 40 42 44 43 51 55 58 58 56
21 22 29 46 30 9 6 7 10 7 14 13 18 20 22 24 23 33 41 39 37 30 24 13 16 31 37 43 35 31 34 25 25 21 37 30 30 30 39 40 36 34 34 38 42 50 55 49 45 49 53 59 61 65
23 26 42 39 13 7 2 11 7 5 18 17 23 27 27 27 46 49 46 45 55 23 25 29 36 34 32 34 43 36 38 37 39 33 28 26 29 30 32 34 34 32 33 42 48 49 49 49 54 57 60 59 61 62
28 36 36 19 6 6 6 5 10 19 12 22 20 26 33 39 34 41 45 42 19 22 20 31 31 26 29 37 37 37 37 35 30 25 26 29 31 35 36 36 37 38 41 43 48 49 50 51 55 58 58 60 62 63
34 27 12 6 5 6 7 12 15 16 12 26 22 18 27 26 22 22 18 15 15 33 29 30 31 27 29 28 33 35 34 28 27 28 30 30 31 32 33 35 37 38 42 45 46 46 49 51 54 56 58 60 62 65
24 7 5 5 5 6 13 10 10 11 15 23 13 14 17 18 19 18 9 10 18 19 25 25 20 17 19 25 27 29 31 31 29 30 34 33 34 35 34 36 36 37 37 43 42 44 47 49 52 54 58 60 63 66
5 7 4 3 4 14 14 15 13 13 15 10 10 11 14 12 9 8 6 8 16 19 19 21 25 26 22 21 24 28 30 31 33 32 34 34 35 36 36 36 36 36 41 41 44 47 49 51 54 58 61 63 65 66
8 3 3 8 12 11 12 12 13 12 12 5 8 11 15 13 10 9 7 16 17 19 20 20 19 18 21 23 25 28 30 31 32 31 34 36 35 35 37 40 41 40 45 41 46 50 53 55 57 59 60 60 61 63
4 5 6 5 10 14 8 15 16 13 7 5 7 14 8 9 8 8 24 20 22 17 15 16 16 19 21 23 24 25 27 30 31 32 33 30 29 29 33 38 40 43 45 42 45 49 52 55 58 59 62 62 61 64
3 13 18 19 27 24 20 21 18 14 10 10 12 10 7 7 6 13 28 24 14 16 19 20 20 20 21 22 23 26 28 29 29 30 30 25 28 30 35 37 39 47 44 44 48 50 52 56 59 60 63 64 65 64
16 24 37 38 30 25 24 21 19 14 19 7 9 8 9 12 40 50 32 22 24 19 17 17 19 21 20 22 23 26 27 29 33 37 39 39 40 42 43 44 47 47 46 49 51 53 55 58 59 61 62 62 64 65
21 24 22 22 16 15 24 22 26 24 29 34 46 63 69 58 41 31 27 23 18 17 17 19 20 22 24 26 27 28 25 27 29 33 38 41 43 46 47 49 52 49 50 53 56 58 58 59 61 62 62 66 68 71
24 28 24 24 16 32 43 48 53 57 62 75 67 72 60 48 36 27 18 14 13 15 21 22 21 22 24 26 27 30 31 30 30 31 36 37 39 45 48 52 49 49 52 54 56 58 61 63 66 67 69 71 71 72
29 23 23 13 30 34 25 27 34 47 43 46 42 36 27 16 11 8 14 11 11 15 21 23 21 23 23 24 25 27 32 32 32 35 39 38 44 47 51 48 47 49 51 53 57 59 61 65 67 69 71 72 74 75
33 39 45 34 21 25 19 21 12 16 16 11 9 15 13 8 6 4 10 11 13 15 19 21 20 21 24 26 29 30 31 32 37 43 44 50 58 55 46 45 48 51 52 57 59 59 61 63 66 68 69 70 72 73
Wind_Direction_850mb
253 243 241 241 245 248 252 255 261 273 288 303 317 323 320 326 329 320 270 285 237 285 63 185 248 327 308 313 321 359 288 7 266 278 286 139 203 186 263 133 263 7 183 59 184 263 292 94 198 295 58 205 297 295
249 238 237 238 241 244 249 253 258 269 283 298 311 316 312 316 324 310 318 306 279 254 328 248 242 263 301 329 322 307 315 295 354 323 330 316 354 298 315 252 266 297 26 356 356 35 117 71 27 66 298 290 295 294
239 234 234 235 237 241 246 250 255 266 279 294 306 309 303 303 312 292 270 259 285 262 245 214 203 203 217 258 308 308 16 344 294 315 317 301 271 287 281 187 57 229 118 268 297 118 147 133 304 300 290 285 287 284
233 232 231 231 233 239 244 247 253 264 277 292 301 300 294 292 297 283 264 264 262 287 280 139 166 160 189 191 206 284 308 311 288 278 270 293 269 68 295 314 321 72 231 35 230 154 200 180 311 317 300 277 276 273
227 227 227 226 230 238 242 245 252 263 276 290 296 292 284 284 287 277 259 244 235 259 323 86 200 185 190 188 210 256 287 283 274 242 239 310 315 325 273 307 286 78 20 340 58 95 320 81 327 301 300 287 277 279
223 223 222 222 228 236 239 244 251 262 276 287 289 286 275 276 280 274 264 248 220 225 292 280 113 172 195 205 218 239 257 270 279 301 354 205 74 289 285 289 87 84 107 14 338 92 22 328 297 300 305 301 287 280
219 218 217 220 228 233 237 243 251 264 278 286 280 281 263 267 260 219 299 140 190 188 246 251 240 176 197 206 224 238 216 263 289 247 276 276 180 212 286 355 90 103 139 165 201 279 270 247 299 323 302 293 281 273
214 213 214 220 227 230 235 242 253 269 281 277 278 270 258 267 249 242 241 246 189 213 247 257 253 190 191 215 232 155 272 228 218 271 288 257 176 248 214 73 67 222 222 245 254 257 276 297 296 290 297 296 285 285
209 210 214 219 222 227 233 243 260 274 273 273 272 267 259 226 214 207 234 237 216 226 291 223 255 113 160 246 191 215 341 268 88 283 236 316 272 231 82 48 67 194 262 323 332 302 292 290 293 314 314 307 301 307
204 209 213 215 218 224 233 249 265 270 266 265 257 185 213 200 195 201 178 173 197 217 236 268 284 280 238 126 221 259 249 348 233 211 338 250 27 156 50 61 46 32 352 337 330 335 331 322 315 311 304 308 306 310
205 208 210 213 218 225 237 253 266 256 266 185 189 221 247 179 168 203 212 212 201 223 218 231 246 278 32 271 83 241 308 284 276 109 266 133 332 77 99 106 102 53 347 334 319 317 316 312 312 315 316 314 313 312
208 210 213 216 223 232 243 253 230 234 210 193 201 190 158 202 216 201 224 201 240 228 169 240 198 229 123 322 274 285 283 216 326 246 288 34 352 221 162 137 235 326 329 329 325 312 306 305 310 311 310 308 304 301
212 214 220 225 229 234 240 229 214 225 208 205 210 197 192 190 69 210 210 217 223 161 170 196 187 217 174 243 272 295 278 268 322 290 43 110 159 137 35 302 289 289 307 310 322 323 332 326 319 316 308 307 310 318
213 220 226 232 230 232 230 197 210 201 184 208 193 337 204 191 214 216 238 113 71 87 174 222 163 211 243 244 219 249 5 306 312 115 48 73 39 7 320 293 301 322 331 326 334 336 328 328 330 326 328 330 321 312
221 233 240 229 226 214 186 200 197 189 199 231 211 197 212 19 8 10 338 86 91 115 203 208 232 240 261 249 213 102 301 60 3 98 103 67 34 9 356 347 342 348 346 338 334 332 329 325 323 324 326 327 331 332
232 240 236 211 183 178 191 186 178 186 230 237 241 231 136 216 137 190 162 113 135 140 209 249 252 255 220 251 101 33 259 23 58 147 69 55 41 28 15 5 356 351 348 346 345 344 341 339 338 334 339 346 343 339
215 199 186 168 182 189 167 161 166 192 229 215 193 266 217 184 131 83 61 69 215 255 249 253 218 46 207 52 319 5 61 46 59 66 69 52 40 28 19 13 8 3 357 352 347 347 357 353 346 345 354 345 347 338
175 180 174 177 169 157 153 155 169 202 207 184 193 161 56 101 126 98 76 42 254 209 213 45 103 36 30 36 101 60 42 57 42 78 65 55 41 31 27 19 12 8 10 9 15 12 6 1 357 346 343 341 337 334
173 176 173 163 151 134 156 178 197 174 112 138 115 136 112 101 89 82 84 65 83 101 182 49 59 40 37 30 30 38 32 20 81 80 72 53 46 45 36 28 21 14 10 7 3 358 350 348 342 338 339 344 340 342
166 164 163 159 147 120 127 170 171 143 169 145 141 151 127 102 101 78 58 59 65 55 33 46 50 38 36 24 43 42 32 27 20 30 43 36 29 15 14 13 7 359 353 347 345 348 352 353 353 349 343 340 335 333
149 151 159 164 160 134 125 154 113 88 146 167 126 132 134 114 86 98 90 69 56 58 46 77 79 57 64 64 64 55 45 43 43 46 36 20 10 8 2 0 1 359 2 358 356 353 352 348 342 340 338 336 335 334
147 144 146 154 137 156 93 74 130 151 164 152 162 151 130 112 108 95 71 65 56 17 49 70 69 62 57 53 50 48 46 38 39 26 24 10 359 358 1 3 3 359 354 353 350 347 346 344 343 342 342 340 338 337
129 135 129 139 126 74 115 133 160 165 151 173 180 138 135 117 120 104 78 60 46 40 66 70 72 69 64 55 48 39 33 28 20 15 11 4 1 360 355 353 350 350 347 347 348 347 345 345 346 347 345 345 344 342
148 92 103 92 108 119 155 163 161 169 149 176 177 142 121 129 97 76 77 69 34 49 65 61 58 58 50 42 34 25 20 17 11 7 4 4 358 354 351 349 349 349 349 345 346 346 346 346 346 346 345 345 345 345
109 45 70 61 157 173 169 169 175 162 182 172 125 126 158 131 64 73 79 89 53 62 54 50 52 54 49 34 23 18 12 11 5 358 357 354 348 345 347 348 348 348 346 349 348 345 344 343 342 342 342 341 340 339
80 122 188 156 171 181 164 160 179 174 157 114 80 127 68 70 71 76 88 113 99 82 68 55 42 35 30 21 13 10 6 1 358 355 350 349 346 346 346 346 346 345 344 345 341 340 339 339 338 338 337 338 338 338
102 125 152 164 131 141 122 142 154 123 102 113 104 68 78 79 93 94 126 132 114 86 61 52 42 34 22 11 7 1 354 353 352 347 344 345 344 346 346 344 341 335 338 337 334 336 335 334 334 334 334 334 334 334
79 153 134 122 92 95 88 82 56 41 55 55 77 49 71 73 96 129 140 133 100 62 51 39 25 12 2 1 356 352 348 347 348 348 348 348 347 344 341 339 335 335 337 333 332 332 332 331 331 331 331 329 328 329
133 120 109 93 76 62 30 25 30 32 344 13 93 95 91 78 130 127 119 94 76 62 39 25 10 7 2 359 353 350 348 348 350 351 349 346 344 343 342 338 336 336 334 331 330 330 330 329 328 328 326 324 326 325
95 107 95 56 52 51 31 42 52 46 61 100 105 113 111 115 110 101 90 80 65 44 23 12 4 360 358 354 349 349 350 347 346 344 341 339 336 334 334 332 331 333 332 330 329 329 330 330 328 328 327 326 326 327
104 96 74 74 84 96 90 82 77 78 89 98 113 110 110 109 97 82 69 58 42 16 12 9 3 355 353 351 348 344 339 341 339 336 332 333 331 330 330 329 332 332 329 328 328 328 329 328 328 327 327 326 326 326
97 111 118 104 137 135 104 76 76 93 97 101 105 108 108 93 88 86 55 37 24 12 2 1 355 348 343 343 339 336 331 335 334 327 330 329 330 330 330 334 334 331 329 328 328 328 327 327 327 327 328 328 328 328
97 103 112 112 132 171 140 122 111 121 110 100 74 95 82 76 85 60 58 20 6 356 351 347 345 342 340 338 335 334 334 333 329 333 331 330 331 337 341 338 335 333 332 331 329 328 329 329 329 330 330 330 330 330